Location: Blue Mountain Vista Observatory
(40.6992°N, 75.9422°W)
Time: 01:18:30
(UTC-04:00)

IDEFIX/ARIANE 42P - Visible Passes

Search period start: 02 July 2015 00:00
Search period end: 12 July 2015 00:00
Orbit: 786 x 803 km, 98.3° (Epoch: 01 July)

Date Brightness Start Highest point End Pass type
(mag) Time Alt. Az. Time Alt. Az. Time Alt. Az.
04 Jul 5.5 21:36:59 10° WSW 21:38:42 11° W 21:40:02 10° WNW visible
05 Jul 5.1 21:05:58 10° SW 21:10:01 21° W 21:13:53 10° NW visible
08 Jul 5.3 21:21:54 10° SW 21:25:02 15° W 21:27:55 10° NW visible
11 Jul 5.7 21:39:02 10° W 21:40:07 10° W 21:40:49 10° WNW visible
